Location: Duffs
(47.4500°N, 53.1167°W)
Time: 10:44:19
(UTC+00:00)

ISS - Pass Details

Date: 28 May 2022
Orbit: 414 x 420 km, 51.6° (Epoch: 01 July)

Event Time Altitude Azimuth Distance (km) Brightness Sun altitude
Rises 01:51:28 0° 287° (WNW) 2,367 0.7 -17.7°
Reaches altitude 10° 01:54:01 10° 268° (W) 1,497 -0.7 -17.8°
Enters shadow 01:55:56 18° 233° (SW) 1,117 -1.8 -18.0°
